Powrót do katalogu

CZ-4C DEB

AktywnyLEO
NORAD 40343·DEBRIS·🇨🇳 China

Wystrzelony Dec 10, 2014 z Jiuquan Satellite Launch Center

Loading…

Następne Przeloty (najbliższe 24 godziny)

TLE

ŚwieżeSource: Space-Track

Epoka: Sep 14, 2026, 13:16 UTC

1 40343U 14080F   26257.55302289 -.00000020  00000-0  76057-4 0  9995
2 40343  63.3850  95.8056 0387141  11.2720 349.6675 13.44919058577442

Śledź CZ-4C DEB w czasie rzeczywistym z AllMySat

Download on the App Store